This demonstration page uses our WeatherBlox Daily Observations layout. Learn more.

Left ArrowRight Arrow

44.89941, -97.11507

Hourly Observations for November 28, 2019

Temp ( °F °C ) Dew Point ( °F °C ) Humidity (%) Winds ( mph kmh ) Pressure ( in mb ) Visibility ( mi km ) Precip ( " mm )
12:53 am 00:53 Cloudy 21 -6.1 17 -8.3 85 85 NE 12 19 30.49 1033 10 16 0.00 0.00
1:46 am 01:46 Cloudy 20 -6.7 17 -8.3 89 89 NE 8 13 30.55 1035 10 16 0.00 0.00
1:53 am 01:53 Cloudy 21 -6.1 17 -8.3 85 85 NE 10 17 30.50 1033 10 16 0.00 0.00
2:53 am 02:53 Cloudy 20 -6.7 17 -8.3 89 89 ESE 7 11 30.53 1034 10 16 0.00 0.00
3:53 am 03:53 Cloudy 20 -6.7 17 -8.3 89 89 ESE 3 6 30.53 1034 10 16 0.00 0.00
4:53 am 04:53 Cloudy 20 -6.7 17 -8.3 89 89 ESE 3 6 30.53 1034 10 16 0.00 0.00
5:53 am 05:53 Cloudy 20 -6.7 17 -8.3 89 89 ESE 6 9 30.53 1034 10 16 0.00 0.00
6:53 am 06:53 Cloudy 20 -6.7 18 -7.8 92 92 SE 6 9 30.53 1034 10 16 0.00 0.00
7:53 am 07:53 Cloudy 20 -6.7 18 -7.8 92 92 ESE 8 13 30.49 1032 10 16 0.00 0.00
8:16 am 08:16 Cloudy with Light Snow 20 -6.7 18 -7.8 92 92 E 5 7 30.55 1035 2 3 0.00 0.00
8:22 am 08:22 Cloudy with Mist and Fog 20 -6.7 18 -7.8 92 92 ESE 8 13 30.56 1035 3 5 0.00 0.00
8:53 am 08:53 Cloudy 20 -6.7 18 -7.8 92 92 ESE 8 13 30.52 1034 10 16 0.00 0.00
9:53 am 09:53 Cloudy 20 -6.7 19 -7.2 96 96 ESE 10 17 30.50 1033 10 16 0.00 0.00
10:53 am 10:53 Cloudy 21 -6.1 19 -7.2 92 92 ESE 10 17 30.51 1033 10 16 0.00 0.00
11:53 am 11:53 Cloudy 22 -5.6 20 -6.7 92 92 SSE 12 19 30.48 1032 10 16 0.00 0.00
12:53 pm 12:53 Cloudy 22 -5.6 20 -6.7 92 92 SE 10 17 30.45 1031 10 16 0.00 0.00
1:53 pm 13:53 Cloudy 23 -5 21 -6.1 92 92 SSE 9 15 30.43 1030 10 16 0.00 0.00
2:53 pm 14:53 Cloudy 23 -5 21 -6.1 92 92 SE 8 13 30.43 1031 10 16 0.00 0.00
3:53 pm 15:53 Cloudy 24 -4.4 21 -6.1 88 88 SE 12 19 30.44 1031 10 16 0.00 0.00
4:53 pm 16:53 Cloudy 24 -4.4 22 -5.6 91 91 SE 10 17 30.44 1031 10 16 0.00 0.00
5:53 pm 17:53 Cloudy 24 -4.4 22 -5.6 91 91 ESE 9 15 30.40 1030 10 16 0.00 0.00
6:53 pm 18:53 Cloudy 23 -5 21 -6.1 92 92 E 13 20 30.38 1029 10 16 0.00 0.00
7:27 pm 19:27 Cloudy 22 -5.6 21 -6.1 96 96 E 10 17 30.42 1030 9 14 0.00 0.00
7:53 pm 19:53 Cloudy 22 -5.6 21 -6.1 96 96 ESE 9 15 30.40 1029 9 14 0.00 0.00
8:42 pm 20:42 Cloudy 22 -5.6 20 -6.7 92 92 ESE 9 15 30.42 1030 9 14 0.00 0.00
8:53 pm 20:53 Cloudy 22 -5.6 20 -6.7 92 92 ESE 9 15 30.38 1029 10 16 0.00 0.00
9:53 pm 21:53 Cloudy 22 -5.6 20 -6.7 92 92 ESE 7 11 30.38 1029 10 16 0.00 0.00
10:16 pm 22:16 Cloudy 22 -5.6 20 -6.7 92 92 ESE 7 11 30.39 1029 10 16 0.00 0.00
10:53 pm 22:53 Cloudy 23 -5 20 -6.7 88 88 SSE 12 19 30.37 1029 9 14 0.00 0.00
11:32 pm 23:32 Cloudy with Light Snow 23 -5 21 -6.1 92 92 SE 13 20 30.41 1030 3 4 0.00 0.00
11:39 pm 23:39 Cloudy with Mist and Fog 23 -5 21 -6.1 92 92 SE 12 19 30.41 1030 3 5 0.00 0.00
11:46 pm 23:46 Cloudy with Mist and Fog 23 -5 21 -6.1 92 92 SSE 13 20 30.41 1030 4 6 0.00 0.00
11:53 pm 23:53 Cloudy with Mist and Fog 23 -5 21 -6.1 92 92 SSE 10 17 30.37 1028 5 8 0.00 0.00

Powered by AerisWeather